Tracking 18823 objects as of 23-October-2017
HD Live streaming from Space Station
objects crossing your sky now

BONUM 1

Track BONUM 1 now!
BONUM 1 is classified as:


NORAD ID: 25546
Int'l Code: 1998-068A
Perigee: 36,123.6 km
Apogee: 36,164.2 km
Inclination: 4.5 °
Period: 1,454.0 minutes
Semi major axis: 42514 km
RCS: 0.003 m2 (small)
Launch date: November 22, 1998
Source: Commonwealth of Independent States (former USSR) (CIS)
Launch site: AIR FORCE EASTERN TEST RANGE (AFETR)

Television broadcasting; 8 Ku-band, Siberia or Europe, selected.
aabbcc
Your satellite tracking list
Your tracking list is empty





NASA's NSSDC Master Catalog

Two Line Element Set (TLE):
1 25546U 98068A   17295.94041047  .00000073  00000-0  00000+0 0  9995
2 25546   4.4641  66.6369 0004766 228.4426 131.5126  0.99035554 69240
Source of the keplerian elements: AFSPC